| time (UTC) | temp F | wind direction | speed knots | gust knots | rain 1hr in | rain 24hr in | rain mn in | humidity % | barometer mb |
| 20260831205842 | 97 | 175 | 4.3 | 9.6 | 0.00 | 0.00 | 0.00 | 55 | 1013.6 |
| 20260831205324 | 97 | 84 | 5.2 | 9.6 | 0.00 | 0.00 | 0.00 | 55 | 1013.8 |
| 20260831204836 | 97 | 101 | 5.2 | 9.6 | 0.00 | 0.00 | 0.00 | 55 | 1013.8 |
| 20260831204321 | 98 | 65 | 5.2 | 11.3 | 0.00 | 0.00 | 0.00 | 56 | 1013.9 |
| 20260831203854 | 98 | 98 | 7.0 | 11.3 | 0.00 | 0.00 | 0.00 | 56 | 1014.0 |
| 20260831203320 | 98 | 96 | 3.5 | 9.6 | 0.00 | 0.00 | 0.00 | 57 | 1014.0 |
| 20260831202829 | 98 | 111 | 5.2 | 9.6 | 0.00 | 0.00 | 0.00 | 58 | 1014.2 |
| 20260831202334 | 97 | 114 | 5.2 | 12.2 | 0.00 | 0.00 | 0.00 | 58 | 1014.3 |
| 20260831201845 | 97 | 157 | 4.3 | 12.2 | 0.00 | 0.00 | 0.00 | 58 | 1014.3 |
| 20260831201348 | 97 | 177 | 5.2 | 12.2 | 0.00 | 0.00 | 0.00 | 59 | 1014.4 |
| 20260831200844 | 97 | 190 | 4.3 | 12.2 | 0.00 | 0.00 | 0.00 | 59 | 1014.4 |
| 20260831200329 | 96 | 159 | 7.0 | 11.3 | 0.00 | 0.00 | 0.00 | 60 | 1014.5 |
| 20260831195839 | 96 | 153 | 4.3 | 7.8 | 0.00 | 0.00 | 0.00 | 60 | 1014.6 |
| 20260831195325 | 96 | 192 | 4.3 | 11.3 | 0.00 | 0.00 | 0.00 | 61 | 1014.6 |
| 20260831194829 | 96 | 123 | 4.3 | 12.2 | 0.00 | 0.00 | 0.00 | 61 | 1014.8 |
| 20260831194324 | 96 | 144 | 4.3 | 10.4 | 0.00 | 0.00 | 0.00 | 62 | 1014.8 |
| 20260831193849 | 95 | 228 | 2.6 | 13.9 | 0.00 | 0.00 | 0.00 | 63 | 1014.9 |
| 20260831193341 | 95 | 130 | 5.2 | 11.3 | 0.00 | 0.00 | 0.00 | 63 | 1015.0 |
| 20260831192828 | 95 | 88 | 2.6 | 13.0 | 0.00 | 0.00 | 0.00 | 64 | 1015.0 |
| 20260831192330 | 94 | 109 | 7.8 | 13.0 | 0.00 | 0.00 | 0.00 | 64 | 1015.2 |
| 20260831191842 | 94 | 119 | 6.1 | 10.4 | 0.00 | 0.00 | 0.00 | 64 | 1015.2 |
| 20260831191349 | 94 | 123 | 3.5 | 13.9 | 0.00 | 0.00 | 0.00 | 65 | 1015.4 |
| 20260831190836 | 94 | 111 | 4.3 | 13.9 | 0.00 | 0.00 | 0.00 | 66 | 1015.4 |
| 20260831190330 | 94 | 139 | 3.5 | 11.3 | 0.00 | 0.00 | 0.00 | 66 | 1015.4 |
| 20260831185839 | 94 | 136 | 5.2 | 12.2 | 0.00 | 0.00 | 0.00 | 66 | 1015.5 |
| 20260831185323 | 94 | 76 | 6.1 | 12.2 | 0.00 | 0.00 | 0.00 | 67 | 1015.6 |
| 20260831184840 | 94 | 57 | 4.3 | 11.3 | 0.00 | 0.00 | 0.00 | 67 | 1015.7 |
| 20260831184345 | 94 | 107 | 4.3 | 11.3 | 0.00 | 0.00 | 0.00 | 68 | 1015.6 |
| 20260831183838 | 94 | 135 | 6.1 | 11.3 | 0.00 | 0.00 | 0.00 | 69 | 1015.8 |
| 20260831183323 | 94 | 99 | 6.1 | 11.3 | 0.00 | 0.00 | 0.00 | 69 | 1015.9 |
| 20260831182828 | 93 | 106 | 5.2 | 14.8 | 0.00 | 0.00 | 0.00 | 70 | 1016.0 |
| 20260831182342 | 93 | 125 | 4.3 | 14.8 | 0.00 | 0.00 | 0.00 | 70 | 1016.1 |
| 20260831181848 | 93 | 126 | 8.7 | 13.9 | 0.00 | 0.00 | 0.00 | 71 | 1016.1 |
| 20260831181340 | 93 | 151 | 4.3 | 13.9 | 0.00 | 0.00 | 0.00 | 71 | 1016.1 |
| 20260831180829 | 93 | 123 | 7.0 | 13.9 | 0.00 | 0.00 | 0.00 | 72 | 1016.1 |
| 20260831180334 | 93 | 118 | 3.5 | 12.2 | 0.00 | 0.00 | 0.00 | 72 | 1016.1 |
| 20260831175820 | 93 | 146 | 7.0 | 12.2 | 0.00 | 0.00 | 0.00 | 73 | 1016.2 |
| 20260831175330 | 92 | 62 | 2.6 | 11.3 | 0.00 | 0.00 | 0.00 | 73 | 1016.3 |
| 20260831174836 | 92 | 105 | 6.1 | 11.3 | 0.00 | 0.00 | 0.00 | 74 | 1016.4 |
| 20260831174345 | 92 | 93 | 2.6 | 7.0 | 0.00 | 0.00 | 0.00 | 74 | 1016.4 |
| 20260831173830 | 92 | 139 | 3.5 | 7.8 | 0.00 | 0.00 | 0.00 | 74 | 1016.5 |
| 20260831173345 | 92 | 129 | 3.5 | 8.7 | 0.00 | 0.00 | 0.00 | 75 | 1016.5 |
| 20260831172829 | 92 | 161 | 3.5 | 11.3 | 0.00 | 0.00 | 0.00 | 75 | 1016.6 |
| 20260831172333 | 91 | 155 | 5.2 | 11.3 | 0.00 | 0.00 | 0.00 | 76 | 1016.6 |
| 20260831171825 | 91 | 93 | 6.1 | 9.6 | 0.00 | 0.00 | 0.00 | 76 | 1016.7 |
| 20260831171333 | 91 | 86 | 5.2 | 9.6 | 0.00 | 0.00 | 0.00 | 76 | 1016.7 |
| 20260831170843 | 91 | 92 | 2.6 | 7.0 | 0.00 | 0.00 | 0.00 | 77 | 1016.8 |
| 20260831170333 | 91 | 140 | 2.6 | 6.1 | 0.00 | 0.00 | 0.00 | 78 | 1016.8 |
| 20260831165819 | 91 | 71 | 2.6 | 6.1 | 0.00 | 0.00 | 0.00 | 78 | 1016.9 |
| 20260831165329 | 90 | 212 | 0.9 | 7.0 | 0.00 | 0.00 | 0.00 | 78 | 1017.0 |
| 20260831164833 | 90 | 188 | 4.3 | 7.8 | 0.00 | 0.00 | 0.00 | 79 | 1017.0 |
| 20260831164347 | 90 | 219 | 3.5 | 7.8 | 0.00 | 0.00 | 0.00 | 79 | 1017.0 |
| 20260831163859 | 90 | 231 | 3.5 | 7.8 | 0.00 | 0.00 | 0.00 | 79 | 1017.0 |
| 20260831163323 | 89 | 161 | 5.2 | 7.8 | 0.00 | 0.00 | 0.00 | 79 | 1017.0 |
| 20260831162828 | 89 | 103 | 2.6 | 7.0 | 0.00 | 0.00 | 0.00 | 80 | 1017.0 |
| 20260831162334 | 89 | 144 | 4.3 | 7.8 | 0.00 | 0.00 | 0.00 | 80 | 1017.1 |
| 20260831161818 | 89 | 132 | 6.1 | 7.8 | 0.00 | 0.00 | 0.00 | 80 | 1017.0 |
| 20260831161323 | 88 | 254 | 2.6 | 7.0 | 0.00 | 0.00 | 0.00 | 80 | 1017.0 |
| 20260831160834 | 88 | 145 | 1.7 | 4.3 | 0.00 | 0.00 | 0.00 | 80 | 1017.0 |
| 20260831160319 | 88 | 90 | 1.7 | 4.3 | 0.00 | 0.00 | 0.00 | 81 | 1017.0 |
| 20260831155822 | 88 | 178 | 0.9 | 7.8 | 0.00 | 0.00 | 0.00 | 81 | 1017.0 |
| 20260831155335 | 88 | 291 | 4.3 | 7.8 | 0.00 | 0.00 | 0.00 | 81 | 1017.0 |
| 20260831154842 | 87 | 238 | 2.6 | 7.8 | 0.00 | 0.00 | 0.00 | 81 | 1016.9 |
| 20260831154327 | 87 | 238 | 3.5 | 7.8 | 0.00 | 0.00 | 0.00 | 81 | 1016.8 |
| 20260831153833 | 86 | 220 | 1.7 | 3.5 | 0.00 | 0.00 | 0.00 | 81 | 1016.9 |
| 20260831153318 | 86 | 104 | 2.6 | 7.8 | 0.00 | 0.00 | 0.00 | 81 | 1016.8 |
| 20260831152830 | 86 | 350 | 1.7 | 7.8 | 0.00 | 0.00 | 0.00 | 81 | 1016.9 |
| 20260831152333 | 86 | 245 | 3.5 | 7.0 | 0.00 | 0.00 | 0.00 | 81 | 1016.9 |
| 20260831151819 | 85 | 246 | 0.0 | 6.1 | 0.00 | 0.00 | 0.00 | 81 | 1016.8 |
| 20260831151350 | 85 | 242 | 3.5 | 4.3 | 0.00 | 0.00 | 0.00 | 81 | 1016.9 |
| 20260831150845 | 85 | 268 | 2.6 | 7.8 | 0.00 | 0.00 | 0.00 | 81 | 1016.9 |
| 20260831150327 | 85 | 234 | 1.7 | 7.8 | 0.00 | 0.00 | 0.00 | 81 | 1016.9 |
| 20260831145819 | 85 | 246 | 3.5 | 7.0 | 0.00 | 0.00 | 0.00 | 81 | 1016.9 |
| 20260831145319 | 84 | 233 | 3.5 | 5.2 | 0.00 | 0.00 | 0.00 | 81 | 1016.9 |
| 20260831144831 | 84 | 153 | 2.6 | 5.2 | 0.00 | 0.00 | 0.00 | 81 | 1016.9 |
| 20260831144336 | 84 | 269 | 0.9 | 3.5 | 0.00 | 0.00 | 0.00 | 81 | 1016.8 |
| 20260831143821 | 83 | 270 | 1.7 | 5.2 | 0.00 | 0.00 | 0.00 | 81 | 1016.8 |
| 20260831143353 | 83 | 274 | 2.6 | 6.1 | 0.00 | 0.00 | 0.00 | 80 | 1016.8 |
| 20260831142820 | 83 | 261 | 2.6 | 6.1 | 0.00 | 0.00 | 0.00 | 80 | 1016.8 |
| 20260831142326 | 83 | 240 | 1.7 | 4.3 | 0.00 | 0.00 | 0.00 | 80 | 1016.8 |
| 20260831141858 | 82 | 171 | 1.7 | 4.3 | 0.00 | 0.00 | 0.00 | 80 | 1016.8 |
| 20260831141322 | 82 | 182 | 1.7 | 5.2 | 0.00 | 0.00 | 0.00 | 80 | 1016.8 |
| 20260831140834 | 81 | 220 | 1.7 | 5.2 | 0.00 | 0.00 | 0.00 | 80 | 1016.8 |
| 20260831140339 | 81 | 229 | 0.0 | 2.6 | 0.00 | 0.00 | 0.00 | 80 | 1016.7 |
| 20260831135850 | 81 | 230 | 0.9 | 4.3 | 0.00 | 0.00 | 0.00 | 79 | 1016.6 |
| 20260831135341 | 80 | 227 | 0.9 | 3.5 | 0.00 | 0.00 | 0.00 | 79 | 1016.7 |
| 20260831134827 | 80 | 215 | 0.0 | 0.9 | 0.00 | 0.00 | 0.00 | 79 | 1016.6 |
| 20260831134325 | 80 | 216 | 0.0 | 0.9 | 0.00 | 0.00 | 0.00 | 79 | 1016.6 |
| 20260831133836 | 79 | 215 | 0.0 | 1.7 | 0.00 | 0.00 | 0.00 | 79 | 1016.5 |
| 20260831133321 | 79 | 214 | 0.9 | 1.7 | 0.00 | 0.00 | 0.00 | 79 | 1016.5 |
| 20260831132824 | 78 | 214 | 0.0 | 0.9 | 0.00 | 0.00 | 0.00 | 79 | 1016.5 |
| 20260831132318 | 78 | 214 | 0.0 | 2.6 | 0.00 | 0.00 | 0.00 | 78 | 1016.4 |
| 20260831131822 | 77 | 214 | 0.0 | 2.6 | 0.00 | 0.00 | 0.00 | 78 | 1016.4 |
| 20260831131327 | 77 | 215 | 0.0 | 0.0 | 0.00 | 0.00 | 0.00 | 78 | 1016.3 |
| 20260831130841 | 77 | 215 | 0.0 | 0.0 | 0.00 | 0.00 | 0.00 | 78 | 1016.3 |
| 20260831130325 | 76 | 215 | 0.0 | 0.0 | 0.00 | 0.00 | 0.00 | 78 | 1016.2 |
| 20260831125829 | 75 | 215 | 0.0 | 0.0 | 0.00 | 0.00 | 0.00 | 78 | 1016.1 |
| 20260831125318 | 75 | 215 | 0.0 | 0.0 | 0.00 | 0.00 | 0.00 | 77 | 1016.1 |
| 20260831124820 | 75 | 215 | 0.0 | 0.0 | 0.00 | 0.00 | 0.00 | 77 | 1016.0 |
| 20260831124332 | 75 | 215 | 0.0 | 0.0 | 0.00 | 0.00 | 0.00 | 77 | 1015.9 |
| 20260831123818 | 75 | 215 | 0.0 | 0.0 | 0.00 | 0.00 | 0.00 | 77 | 1015.9 |
| 20260831123320 | 75 | 215 | 0.0 | 0.0 | 0.00 | 0.00 | 0.00 | 76 | 1016.0 |
| 20260831122834 | 75 | 215 | 0.0 | 1.7 | 0.00 | 0.00 | 0.00 | 76 | 1016.0 |
| 20260831122318 | 75 | 215 | 0.9 | 1.7 | 0.00 | 0.00 | 0.00 | 76 | 1015.8 |
| 20260831121832 | 75 | 216 | 0.0 | 0.0 | 0.00 | 0.00 | 0.00 | 76 | 1015.7 |
| 20260831121337 | 75 | 216 | 0.0 | 0.0 | 0.00 | 0.00 | 0.00 | 76 | 1015.6 |
| 20260831120826 | 75 | 216 | 0.0 | 0.0 | 0.00 | 0.00 | 0.00 | 76 | 1015.6 |
| 20260831120334 | 75 | 216 | 0.0 | 0.9 | 0.00 | 0.00 | 0.00 | 75 | 1015.5 |
| 20260831115823 | 75 | 216 | 0.0 | 1.7 | 0.00 | 0.00 | 0.00 | 75 | 1015.5 |
| 20260831115325 | 75 | 216 | 0.0 | 2.6 | 0.00 | 0.00 | 0.00 | 75 | 1015.5 |
| 20260831114841 | 76 | 216 | 1.7 | 2.6 | 0.00 | 0.00 | 0.00 | 75 | 1015.5 |
| 20260831114347 | 76 | 215 | 1.7 | 2.6 | 0.00 | 0.00 | 0.00 | 75 | 1015.5 |
| 20260831113842 | 76 | 215 | 0.9 | 2.6 | 0.00 | 0.00 | 0.00 | 75 | 1015.5 |
| 20260831113331 | 76 | 215 | 0.9 | 2.6 | 0.00 | 0.00 | 0.00 | 75 | 1015.5 |
| 20260831112822 | 76 | 215 | 1.7 | 2.6 | 0.00 | 0.00 | 0.00 | 74 | 1015.4 |
| 20260831112327 | 76 | 215 | 1.7 | 3.5 | 0.00 | 0.00 | 0.00 | 74 | 1015.4 |
| 20260831111839 | 76 | 214 | 1.7 | 3.5 | 0.00 | 0.00 | 0.00 | 74 | 1015.4 |
| 20260831111325 | 76 | 214 | 2.6 | 3.5 | 0.00 | 0.00 | 0.00 | 74 | 1015.3 |
| 20260831110830 | 76 | 213 | 1.7 | 3.5 | 0.00 | 0.00 | 0.00 | 74 | 1015.2 |
| 20260831110318 | 76 | 214 | 2.6 | 4.3 | 0.00 | 0.00 | 0.00 | 74 | 1015.2 |
| 20260831030828 | 84 | 163 | 3.5 | 7.0 | 0.00 | 0.00 | 0.00 | 51 | 1014.1 |
| 20260831030331 | 84 | 171 | 3.5 | 6.1 | 0.00 | 0.00 | 0.00 | 51 | 1014.0 |
| 20260831025826 | 84 | 172 | 2.6 | 5.2 | 0.00 | 0.00 | 0.00 | 51 | 1013.9 |
| 20260831025401 | 84 | 182 | 2.6 | 3.5 | 0.00 | 0.00 | 0.00 | 50 | 1013.8 |
| 20260831024844 | 84 | 178 | 1.7 | 3.5 | 0.00 | 0.00 | 0.00 | 50 | 1013.6 |
| 20260831024326 | 85 | 178 | 2.6 | 3.5 | 0.00 | 0.00 | 0.00 | 50 | 1013.5 |
| 20260831023828 | 85 | 171 | 2.6 | 5.2 | 0.00 | 0.00 | 0.00 | 49 | 1013.4 |
| 20260831023333 | 85 | 184 | 2.6 | 5.2 | 0.00 | 0.00 | 0.00 | 49 | 1013.4 |
| 20260831022838 | 85 | 177 | 2.6 | 4.3 | 0.00 | 0.00 | 0.00 | 49 | 1013.3 |
| 20260831022340 | 86 | 180 | 2.6 | 3.5 | 0.00 | 0.00 | 0.00 | 49 | 1013.2 |
| 20260831021831 | 86 | 176 | 1.7 | 3.5 | 0.00 | 0.00 | 0.00 | 48 | 1013.2 |
| 20260831021329 | 87 | 178 | 1.7 | 3.5 | 0.00 | 0.00 | 0.00 | 48 | 1013.2 |
| 20260831020835 | 87 | 175 | 2.6 | 3.5 | 0.00 | 0.00 | 0.00 | 48 | 1013.1 |
| 20260831020320 | 87 | 171 | 2.6 | 3.5 | 0.00 | 0.00 | 0.00 | 48 | 1013.1 |
| 20260831015826 | 88 | 162 | 1.7 | 4.3 | 0.00 | 0.00 | 0.00 | 48 | 1013.0 |
| 20260831015327 | 88 | 163 | 1.7 | 4.3 | 0.00 | 0.00 | 0.00 | 48 | 1013.0 |
| 20260831014828 | 88 | 164 | 1.7 | 4.3 | 0.00 | 0.00 | 0.00 | 48 | 1012.9 |
| 20260831014335 | 89 | 166 | 2.6 | 4.3 | 0.00 | 0.00 | 0.00 | 47 | 1012.8 |
| 20260831013846 | 89 | 161 | 1.7 | 4.3 | 0.00 | 0.00 | 0.00 | 47 | 1012.9 |
| 20260831013327 | 89 | 158 | 1.7 | 6.1 | 0.00 | 0.00 | 0.00 | 47 | 1012.8 |
| 20260831012833 | 90 | 157 | 2.6 | 6.1 | 0.00 | 0.00 | 0.00 | 47 | 1012.8 |
| 20260831012335 | 90 | 142 | 2.6 | 7.0 | 0.00 | 0.00 | 0.00 | 47 | 1012.8 |
| 20260831011907 | 90 | 142 | 3.5 | 7.0 | 0.00 | 0.00 | 0.00 | 47 | 1012.8 |
| 20260831011329 | 91 | 163 | 3.5 | 7.0 | 0.00 | 0.00 | 0.00 | 47 | 1012.7 |
| 20260831010834 | 91 | 150 | 3.5 | 7.8 | 0.00 | 0.00 | 0.00 | 46 | 1012.7 |
| 20260831010320 | 91 | 129 | 3.5 | 7.8 | 0.00 | 0.00 | 0.00 | 46 | 1012.7 |
| 20260831005827 | 92 | 122 | 3.5 | 7.0 | 0.00 | 0.00 | 0.00 | 46 | 1012.7 |
| 20260831005330 | 92 | 153 | 2.6 | 6.1 | 0.00 | 0.00 | 0.00 | 46 | 1012.7 |
| 20260831004834 | 92 | 129 | 3.5 | 7.0 | 0.00 | 0.00 | 0.00 | 46 | 1012.6 |
| 20260831004321 | 93 | 133 | 3.5 | 7.8 | 0.00 | 0.00 | 0.00 | 46 | 1012.5 |
| 20260831003828 | 93 | 148 | 4.3 | 7.8 | 0.00 | 0.00 | 0.00 | 46 | 1012.5 |
| 20260831003327 | 93 | 121 | 3.5 | 7.0 | 0.00 | 0.00 | 0.00 | 46 | 1012.5 |
| 20260831002834 | 94 | 140 | 3.5 | 7.0 | 0.00 | 0.00 | 0.00 | 46 | 1012.4 |
| 20260831002335 | 94 | 129 | 3.5 | 7.0 | 0.00 | 0.00 | 0.00 | 46 | 1012.5 |
| 20260831001817 | 94 | 143 | 3.5 | 7.0 | 0.00 | 0.00 | 0.00 | 46 | 1012.5 |
| 20260831001330 | 94 | 109 | 3.5 | 7.0 | 0.00 | 0.00 | 0.00 | 46 | 1012.6 |
| 20260831000859 | 95 | 194 | 4.3 | 9.6 | 0.00 | 0.00 | 0.00 | 46 | 1012.5 |
| 20260831000325 | 95 | 174 | 4.3 | 9.6 | 0.00 | 0.00 | 0.00 | 46 | 1012.6 |
| 20260830235826 | 95 | 123 | 5.2 | 9.6 | 0.00 | 0.00 | 0.00 | 46 | 1012.6 |
| 20260830235328 | 95 | 141 | 5.2 | 10.4 | 0.00 | 0.00 | 0.00 | 46 | 1012.6 |
| 20260830234839 | 96 | 97 | 5.2 | 10.4 | 0.00 | 0.00 | 0.00 | 46 | 1012.5 |
| 20260830234327 | 96 | 178 | 5.2 | 9.6 | 0.00 | 0.00 | 0.00 | 46 | 1012.6 |
| 20260830233831 | 96 | 123 | 3.5 | 11.3 | 0.00 | 0.00 | 0.00 | 47 | 1012.5 |
| 20260830233337 | 96 | 88 | 7.0 | 11.3 | 0.00 | 0.00 | 0.00 | 47 | 1012.5 |
| 20260830232851 | 97 | 188 | 6.1 | 13.0 | 0.00 | 0.00 | 0.00 | 47 | 1012.5 |
| 20260830232349 | 97 | 180 | 7.0 | 13.0 | 0.00 | 0.00 | 0.00 | 47 | 1012.5 |
| 20260830231835 | 97 | 105 | 5.2 | 12.2 | 0.00 | 0.00 | 0.00 | 47 | 1012.5 |
| 20260830231338 | 97 | 109 | 6.1 | 11.3 | 0.00 | 0.00 | 0.00 | 48 | 1012.5 |
| 20260830230829 | 97 | 177 | 5.2 | 10.4 | 0.00 | 0.00 | 0.00 | 48 | 1012.5 |
| 20260830230335 | 97 | 128 | 1.7 | 9.6 | 0.00 | 0.00 | 0.00 | 48 | 1012.4 |
| 20260830225822 | 98 | 166 | 6.1 | 10.4 | 0.00 | 0.00 | 0.00 | 48 | 1012.5 |
| 20260830225325 | 98 | 140 | 4.3 | 10.4 | 0.00 | 0.00 | 0.00 | 49 | 1012.5 |
| 20260830224829 | 97 | 171 | 5.2 | 9.6 | 0.00 | 0.00 | 0.00 | 49 | 1012.5 |
| 20260830224335 | 98 | 153 | 5.2 | 13.0 | 0.00 | 0.00 | 0.00 | 49 | 1012.6 |
| 20260830223821 | 98 | 148 | 3.5 | 11.3 | 0.00 | 0.00 | 0.00 | 50 | 1012.7 |
| 20260830223327 | 98 | 130 | 2.6 | 10.4 | 0.00 | 0.00 | 0.00 | 50 | 1012.7 |
| 20260830222833 | 97 | 159 | 6.1 | 10.4 | 0.00 | 0.00 | 0.00 | 51 | 1012.7 |
| 20260830222337 | 97 | 186 | 5.2 | 8.7 | 0.00 | 0.00 | 0.00 | 51 | 1012.7 |
| 20260830221823 | 97 | 186 | 1.7 | 13.0 | 0.00 | 0.00 | 0.00 | 51 | 1012.7 |
| 20260830221329 | 97 | 111 | 7.8 | 13.0 | 0.00 | 0.00 | 0.00 | 52 | 1012.7 |
| 20260830220858 | 97 | 143 | 5.2 | 12.2 | 0.00 | 0.00 | 0.00 | 52 | 1012.7 |
| 20260830220338 | 97 | 174 | 7.0 | 11.3 | 0.00 | 0.00 | 0.00 | 52 | 1012.8 |
| 20260830215823 | 97 | 138 | 4.3 | 8.7 | 0.00 | 0.00 | 0.00 | 53 | 1012.9 |
| 20260830215322 | 97 | 150 | 3.5 | 10.4 | 0.00 | 0.00 | 0.00 | 53 | 1012.9 |
| 20260830214824 | 97 | 167 | 5.2 | 10.4 | 0.00 | 0.00 | 0.00 | 54 | 1013.0 |
| 20260830214335 | 97 | 111 | 3.5 | 7.0 | 0.00 | 0.00 | 0.00 | 54 | 1013.0 |
| 20260830213841 | 97 | 200 | 3.5 | 13.9 | 0.00 | 0.00 | 0.00 | 55 | 1013.1 |
| 20260830213328 | 97 | 165 | 7.0 | 13.9 | 0.00 | 0.00 | 0.00 | 55 | 1013.1 |
| 20260830212830 | 97 | 151 | 3.5 | 10.4 | 0.00 | 0.00 | 0.00 | 55 | 1013.2 |
| 20260830212330 | 97 | 205 | 2.6 | 8.7 | 0.00 | 0.00 | 0.00 | 56 | 1013.2 |
| 20260830211836 | 97 | 151 | 4.3 | 9.6 | 0.00 | 0.00 | 0.00 | 57 | 1013.2 |
| 20260830211349 | 97 | 126 | 3.5 | 9.6 | 0.00 | 0.00 | 0.00 | 57 | 1013.3 |
| 20260830210845 | 97 | 217 | 6.1 | 9.6 | 0.00 | 0.00 | 0.00 | 57 | 1013.3 |
| 20260830210328 | 96 | 192 | 4.3 | 11.3 | 0.00 | 0.00 | 0.00 | 58 | 1013.3 |